GW6368 Weather Reports


time (UTC)temp
C
wind
direction
speed
KPH
gust
KPH
rain 1hr
cm
rain 24hr
cm
rain mn
cm
humidity
%
barometer
mb
20260505033003 22 0 0.0 0.0 0.00 0.00 0.00 78 1010.9
20260505030003 22 130 0.0 3.2 0.00 0.00 0.00 76 1010.9
20260505023003 23 136 0.0 3.2 0.00 0.00 0.00 74 1010.8
20260505020218 23 126 1.6 12.9 0.00 0.00 0.00 74 1010.6
20260505013003 23 119 0.0 4.8 0.00 0.00 0.00 73 1010.5
20260505010003 23 104 1.6 6.4 0.00 0.00 0.00 72 1010.5
20260505003003 24 133 0.0 4.8 0.00 0.00 0.00 70 1010.2
20260505000003 25 130 1.6 11.3 0.00 0.00 0.00 68 1010.4
20260504233003 25 132 1.6 8.0 0.00 0.00 0.00 66 1010.6
20260504230003 25 128 1.6 12.9 0.00 0.00 0.00 65 1011.0
20260504223003 25 0 0.0 0.0 0.00 0.00 0.00 65 1011.2
20260504220003 25 121 0.0 9.7 0.00 0.00 0.00 64 1011.4
20260504213218 26 123 0.0 11.3 0.00 0.00 0.00 62 1011.8
20260504210004 27 136 1.6 11.3 0.00 0.00 0.00 58 1012.1
20260504203003 27 136 0.0 8.0 0.00 0.00 0.00 58 1012.4
20260504200003 27 130 1.6 14.5 0.00 0.00 0.00 56 1012.7
20260504193218 28 134 1.6 9.7 0.00 0.00 0.00 54 1013.0
20260504190003 27 0 0.0 0.0 0.00 0.00 0.00 54 1013.4
20260504183003 28 119 1.6 12.9 0.00 0.00 0.00 56 1013.4
20260504180004 27 126 0.0 9.7 0.00 0.00 0.00 52 1014.1
20260504173003 27 128 0.0 6.4 0.00 0.00 0.00 53 1014.4
20260504170218 26 109 0.0 4.8 0.00 0.00 0.00 55 1014.7
20260504150217 24 0 0.0 0.0 0.00 0.00 0.00 64 1015.4
20260504080217 14 0 0.0 0.0 0.00 0.00 0.00 82 1016.1
20260504050004 16 0 0.0 0.0 0.00 0.00 0.00 71 1017.9
20260504043003 16 0 0.0 0.0 0.00 0.00 0.00 66 1018.1
20260504040003 17 0 0.0 0.0 0.00 0.00 0.00 62 1018.0